Location: Unnamed
(51.5169°N, 0.1311°W)
Time: 19:53:07
(UTC+01:00)

Tiros 1 - Pass Details

Date: 09 August 2024
Orbit: 623 x 655 km, 48.4° (Epoch: 16 September)

Event Time Altitude Azimuth Distance (km) Brightness Sun altitude
Rises 07:25:49 0° 230° (SW) 2,971 10.1 15.3°
Reaches altitude 10° 07:28:17 10° 222° (SW) 2,063 9.4 15.6°
Maximum altitude 07:32:38 36° 156° (SSE) 1,041 8.6 16.3°
Drops below altitude 10° 07:36:58 10° 90° (E) 2,063 12.4 17.0°
Sets 07:39:27 0° 82° (E) 2,973 12.3 17.4°
